Time,TemperatureF,DewpointF,PressureIn,WindDirection,WindDirectionDegrees,WindSpeedMPH,WindSpeedGustMPH,Humidity,HourlyPrecipIn,Conditions,Clouds,dailyrainin,SolarRadiationWatts/m^2,SoftwareType,DateUTC
2013-09-11 10:00:00,76.0,67.0,-100.00,WSW,247,4.0,-999.0,71,-99.99,,,-99.99,308.559998,,2013-09-11 14:00:00,
2013-09-11 10:42:00,76.0,67.0,-100.00,WSW,247,4.0,-999.0,71,-99.99,,,-99.99,308.559998,,2013-09-11 14:42:00,
2013-09-11 10:52:00,76.0,67.0,-100.00,WSW,247,4.0,-999.0,71,-99.99,,,-99.99,308.559998,,2013-09-11 14:52:00,
2013-09-11 11:00:00,80.0,67.0,-100.00,WSW,247,5.0,-999.0,64,-99.99,,,-99.99,469.799988,,2013-09-11 15:00:00,
2013-09-11 11:43:00,80.0,67.0,-100.00,WSW,247,5.0,-999.0,64,-99.99,,,-99.99,469.799988,,2013-09-11 15:43:00,
2013-09-11 11:54:00,80.0,67.0,-100.00,WSW,247,5.0,-999.0,64,-99.99,,,-99.99,469.799988,,2013-09-11 15:54:00,
2013-09-11 12:00:00,82.0,67.0,-100.00,WSW,247,4.0,-999.0,60,-99.99,,,-99.99,530.119995,,2013-09-11 16:00:00,
2013-09-11 12:43:00,82.0,67.0,-100.00,WSW,247,4.0,-999.0,60,-99.99,,,-99.99,530.119995,,2013-09-11 16:43:00,
2013-09-11 12:53:00,82.0,67.0,-100.00,WSW,247,4.0,-999.0,60,-99.99,,,-99.99,530.119995,,2013-09-11 16:53:00,
2013-09-11 13:00:00,83.0,67.0,-100.00,WSW,247,4.0,-999.0,58,-99.99,,,-99.99,534.760010,,2013-09-11 17:00:00,
2013-09-11 13:43:00,83.0,67.0,-100.00,WSW,247,4.0,-999.0,58,-99.99,,,-99.99,534.760010,,2013-09-11 17:43:00,
2013-09-11 13:52:00,83.0,67.0,-100.00,WSW,247,4.0,-999.0,58,-99.99,,,-99.99,534.760010,,2013-09-11 17:52:00,
2013-09-11 14:00:00,85.0,67.0,-100.00,West,270,5.0,-999.0,56,-99.99,,,-99.99,663.520020,,2013-09-11 18:00:00,
2013-09-11 14:42:00,85.0,67.0,-100.00,West,270,5.0,-999.0,56,-99.99,,,-99.99,663.520020,,2013-09-11 18:42:00,
2013-09-11 14:52:00,85.0,67.0,-100.00,West,270,5.0,-999.0,56,-99.99,,,-99.99,663.520020,,2013-09-11 18:52:00,
2013-09-11 15:00:00,85.0,67.0,-100.00,WSW,247,3.0,-999.0,54,-99.99,,,-99.99,528.960022,,2013-09-11 19:00:00,
2013-09-11 15:42:00,85.0,67.0,-100.00,WSW,247,3.0,-999.0,54,-99.99,,,-99.99,528.960022,,2013-09-11 19:42:00,
2013-09-11 15:53:00,85.0,67.0,-100.00,WSW,247,3.0,-999.0,54,-99.99,,,-99.99,528.960022,,2013-09-11 19:53:00,
2013-09-11 16:00:00,85.0,68.0,-100.00,West,270,1.0,-999.0,56,-99.99,,,-99.99,367.720001,,2013-09-11 20:00:00,
2013-09-11 16:42:00,85.0,68.0,-100.00,West,270,1.0,-999.0,56,-99.99,,,-99.99,367.720001,,2013-09-11 20:42:00,
2013-09-11 16:52:00,85.0,68.0,-100.00,West,270,1.0,-999.0,56,-99.99,,,-99.99,367.720001,,2013-09-11 20:52:00,
2013-09-11 17:00:00,86.0,68.0,-100.00,WSW,247,1.0,-999.0,55,-99.99,,,-99.99,422.239990,,2013-09-11 21:00:00,
2013-09-11 17:44:00,86.0,68.0,-100.00,WSW,247,1.0,-999.0,55,-99.99,,,-99.99,422.239990,,2013-09-11 21:44:00,
2013-09-11 17:54:00,86.0,68.0,-100.00,WSW,247,1.0,-999.0,55,-99.99,,,-99.99,422.239990,,2013-09-11 21:54:00,
2013-09-11 18:00:00,82.0,69.0,-100.00,WSW,247,3.0,-999.0,64,0.11,,,-99.99,98.599998,,2013-09-11 22:00:00,
2013-09-11 18:43:00,82.0,69.0,-100.00,WSW,247,3.0,-999.0,64,0.11,,,-99.99,98.599998,,2013-09-11 22:43:00,
2013-09-11 18:54:00,82.0,69.0,-100.00,WSW,247,3.0,-999.0,64,0.11,,,-99.99,98.599998,,2013-09-11 22:54:00,
2013-09-11 19:00:00,70.0,65.0,-100.00,West,270,7.0,-999.0,85,0.60,,,-99.99,1.160000,,2013-09-11 23:00:00,
2013-09-11 19:42:00,70.0,65.0,-100.00,West,270,7.0,-999.0,85,0.60,,,-99.99,1.160000,,2013-09-11 23:42:00,
2013-09-11 19:53:00,70.0,65.0,-100.00,West,270,7.0,-999.0,85,0.60,,,-99.99,1.160000,,2013-09-11 23:53:00,
2013-09-11 20:00:00,67.0,65.0,-100.00,South,180,1.0,-999.0,91,0.17,,,-99.99,8.120000,,2013-09-12 00:00:00,
2013-09-11 20:42:00,67.0,65.0,-100.00,South,180,1.0,-999.0,91,0.17,,,-99.99,8.120000,,2013-09-12 00:42:00,
2013-09-11 20:52:00,67.0,65.0,-100.00,South,180,1.0,-999.0,91,0.17,,,-99.99,8.120000,,2013-09-12 00:52:00,
2013-09-11 21:00:00,67.0,65.0,-100.00,SE,135,0.0,-999.0,93,0.01,,,-99.99,0.000000,,2013-09-12 01:00:00,
2013-09-11 21:42:00,67.0,65.0,-100.00,SE,135,0.0,-999.0,93,0.01,,,-99.99,0.000000,,2013-09-12 01:42:00,
2013-09-11 21:52:00,67.0,65.0,-100.00,SE,135,0.0,-999.0,93,0.01,,,-99.99,0.000000,,2013-09-12 01:52:00,
2013-09-11 22:00:00,67.0,66.0,-100.00,WSW,247,0.0,-999.0,94,-99.99,,,-99.99,0.000000,,2013-09-12 02:00:00,
2013-09-11 22:52:00,67.0,66.0,-100.00,WSW,247,0.0,-999.0,94,-99.99,,,-99.99,0.000000,,2013-09-12 02:52:00,
2013-09-11 23:00:00,67.0,65.0,-100.00,SSW,202,0.0,-999.0,93,-99.99,,,-99.99,0.000000,,2013-09-12 03:00:00,
2013-09-11 23:45:00,67.0,65.0,-100.00,SSW,202,0.0,-999.0,93,-99.99,,,-99.99,0.000000,,2013-09-12 03:45:00,
2013-09-11 23:55:00,67.0,65.0,-100.00,SSW,202,0.0,-999.0,93,-99.99,,,-99.99,0.000000,,2013-09-12 03:55:00,